AEA3206 EGKK-LEMD

Flight info

Callsign AEA3206
Flight time N/A
Altitude 36000
Route NOVM1X NOVMA DCT HAZEL L620 SAM M195 MARUK N621 LELNA DCT NOVAN DCT DELOG N864 NONTU NONT4C
Aircraft B789/H-SDE1E2E3FGHIJ2J3J4J5M1RWXY/LB1D1

Departure

Time 2026-04-14 13:59
Airport London Gatwick Airport (EGKK)

Arrival

Time N/A
Airport Adolfo Suárez Madrid–Barajas Airport (LEMD)
Time Latitude Longitude Altitude Speed Heading
2026-04-14 13:31 51.15453 -0.17701 210 ft 0 kts 167°
2026-04-14 13:46 51.15456 -0.17702 210 ft 3 kts 167°
2026-04-14 13:46 51.15479 -0.17710 216 ft 4 kts 158°
2026-04-14 13:46 51.15496 -0.17728 222 ft 4 kts 117°
2026-04-14 13:47 51.15500 -0.17762 221 ft 4 kts 82°
2026-04-14 13:47 51.15495 -0.17800 214 ft 1 kts 78°
2026-04-14 13:47 51.15494 -0.17807 212 ft 0 kts 78°
2026-04-14 13:54 51.15501 -0.17760 213 ft 10 kts 77°
2026-04-14 13:54 51.15516 -0.17645 217 ft 11 kts 78°
2026-04-14 13:55 51.15532 -0.17514 218 ft 12 kts 86°
2026-04-14 13:55 51.15503 -0.17433 217 ft 8 kts 142°
2026-04-14 13:55 51.15446 -0.17399 220 ft 10 kts 166°
2026-04-14 13:55 51.15369 -0.17372 216 ft 12 kts 168°
2026-04-14 13:56 51.15279 -0.17339 217 ft 13 kts 158°
2026-04-14 13:56 51.15246 -0.17284 218 ft 3 kts 109°
2026-04-14 13:56 51.15245 -0.17260 218 ft 2 kts 85°
2026-04-14 13:56 51.15234 -0.17196 215 ft 9 kts 118°
2026-04-14 13:57 51.15204 -0.17102 213 ft 10 kts 102°
2026-04-14 13:57 51.15208 -0.16979 210 ft 12 kts 81°
2026-04-14 13:57 51.15213 -0.16877 216 ft 9 kts 96°
2026-04-14 13:57 51.15178 -0.16809 218 ft 6 kts 161°
2026-04-14 13:58 51.15136 -0.16824 214 ft 8 kts 214°
2026-04-14 13:58 51.15099 -0.16941 215 ft 20 kts 256°
2026-04-14 13:58 51.15025 -0.17473 218 ft 87 kts 257°
2026-04-14 13:58 51.14841 -0.18815 217 ft 159 kts 258°
2026-04-14 13:59 51.14618 -0.20776 622 ft 188 kts 261°
2026-04-14 13:59 51.14392 -0.22985 1274 ft 211 kts 256°
2026-04-14 13:59 51.14025 -0.25289 2109 ft 221 kts 249°
2026-04-14 13:59 51.13590 -0.27787 2603 ft 246 kts 251°
2026-04-14 14:00 51.13227 -0.30423 3588 ft 248 kts 254°
2026-04-14 14:00 51.12861 -0.33192 3997 ft 260 kts 254°
2026-04-14 14:00 51.12479 -0.35976 3972 ft 256 kts 253°
2026-04-14 14:00 51.12091 -0.38727 3972 ft 252 kts 253°
2026-04-14 14:01 51.11710 -0.41443 3972 ft 251 kts 253°
2026-04-14 14:01 51.11160 -0.44048 3988 ft 246 kts 237°
2026-04-14 14:01 51.10350 -0.46440 3989 ft 247 kts 242°
2026-04-14 14:01 51.09627 -0.48920 3979 ft 247 kts 242°
2026-04-14 14:02 51.08882 -0.51373 3981 ft 246 kts 240°
2026-04-14 14:02 51.08114 -0.53809 3981 ft 246 kts 240°
2026-04-14 14:02 51.07346 -0.56249 3969 ft 246 kts 240°
2026-04-14 14:02 51.06588 -0.58686 3973 ft 245 kts 240°
2026-04-14 14:03 51.05823 -0.61130 3974 ft 248 kts 240°
2026-04-14 14:03 51.05228 -0.63692 3978 ft 250 kts 256°
2026-04-14 14:03 51.04927 -0.66416 3978 ft 251 kts 252°
2026-04-14 14:03 51.04516 -0.69117 3978 ft 251 kts 252°
2026-04-14 14:04 51.04134 -0.71821 3976 ft 249 kts 253°
2026-04-14 14:04 51.03778 -0.74519 3968 ft 249 kts 254°
2026-04-14 14:04 51.03419 -0.77222 3970 ft 252 kts 253°
2026-04-14 14:04 51.03048 -0.79959 4835 ft 248 kts 253°
2026-04-14 14:05 51.02689 -0.82602 6034 ft 250 kts 254°
2026-04-14 14:05 51.02314 -0.85356 7114 ft 254 kts 255°
2026-04-14 14:05 51.01936 -0.88133 8097 ft 259 kts 255°
2026-04-14 14:05 51.01551 -0.90962 9104 ft 266 kts 255°
2026-04-14 14:06 51.01160 -0.93824 10082 ft 272 kts 255°
2026-04-14 14:06 51.00740 -0.96886 10658 ft 293 kts 255°
2026-04-14 14:06 51.00285 -1.00191 10945 ft 320 kts 256°
2026-04-14 14:06 50.99804 -1.03707 11773 ft 326 kts 256°
2026-04-14 14:07 50.99321 -1.07239 12775 ft 330 kts 257°
2026-04-14 14:07 50.98824 -1.10833 13693 ft 335 kts 258°
2026-04-14 14:07 50.98327 -1.14418 14538 ft 340 kts 258°
2026-04-14 14:07 50.97810 -1.18149 15352 ft 344 kts 258°
2026-04-14 14:08 50.97297 -1.21838 16133 ft 350 kts 258°
2026-04-14 14:08 50.96768 -1.25633 16948 ft 355 kts 258°
2026-04-14 14:08 50.96222 -1.29475 17730 ft 360 kts 256°
2026-04-14 14:08 50.95218 -1.33143 18459 ft 368 kts 240°
2026-04-14 14:09 50.93584 -1.36300 19117 ft 376 kts 224°
2026-04-14 14:09 50.91450 -1.38763 19754 ft 384 kts 217°
2026-04-14 14:09 50.89209 -1.41117 20423 ft 388 kts 217°
2026-04-14 14:09 50.86934 -1.43463 21062 ft 393 kts 217°
2026-04-14 14:10 50.84638 -1.45838 21707 ft 396 kts 217°
2026-04-14 14:10 50.82326 -1.48247 22320 ft 400 kts 217°
2026-04-14 14:10 50.79984 -1.50682 22947 ft 404 kts 217°
2026-04-14 14:10 50.77616 -1.53132 23533 ft 408 kts 217°
2026-04-14 14:11 50.75227 -1.55598 24041 ft 412 kts 218°
2026-04-14 14:11 50.72815 -1.58092 24505 ft 416 kts 218°
2026-04-14 14:11 50.70386 -1.60600 24989 ft 419 kts 218°
2026-04-14 14:11 50.67933 -1.63128 25429 ft 423 kts 218°
2026-04-14 14:12 50.65461 -1.65671 25897 ft 426 kts 218°
2026-04-14 14:12 50.62966 -1.68236 26347 ft 430 kts 218°
2026-04-14 14:12 50.60451 -1.70819 26782 ft 433 kts 218°
2026-04-14 14:12 50.57915 -1.73418 27209 ft 437 kts 218°